This is the latest recevied weather packets stored in our database for station/object K0SDS. If no packets are shown the sender has not sent any weather packets the latest 10 day(s).
| Time | Temp. | Humidity | Pressure | Rain* | Wind** | Luminosity | Snow |
|---|---|---|---|---|---|---|---|
| 1787532986 | 22.78° C | 82% | 1016.2 hPa | 0 mm | - | 6 W/m² | - |
| 1787532682 | 22.78° C | 82% | 1016.4 hPa | 0 mm | - | 10 W/m² | - |
| 1787532377 | 22.78° C | 81% | 1016.2 hPa | 0 mm | - | 12 W/m² | - |
| 1787532073 | 23.33° C | 79% | 1016.3 hPa | 0 mm | - | 12 W/m² | - |
| 1787531769 | 23.33° C | 78% | 1016.4 hPa | 0 mm | - | 15 W/m² | - |
| 1787531465 | 23.33° C | 78% | 1016.5 hPa | 0 mm | - | 19 W/m² | - |
| 1787531160 | 23.89° C | 77% | 1016.5 hPa | 0 mm | - | 22 W/m² | - |
| 1787530856 | 23.89° C | 76% | 1016.5 hPa | 0 mm | - | 28 W/m² | - |
| 1787530555 | 23.89° C | 76% | 1016.4 hPa | 0 mm | - | 36 W/m² | - |
| 1787530250 | 24.44° C | 75% | 1016.7 hPa | 0 mm | - | 50 W/m² | - |
| 1787529947 | 24.44° C | 75% | 1016.7 hPa | 0 mm | - | 43 W/m² | - |
| 1787529642 | 25° C | 75% | 1016.7 hPa | 0 mm | - | 51 W/m² | - |
| 1787529337 | 25° C | 76% | 1017.1 hPa | 0 mm | - | 68 W/m² | - |
| 1787529031 | 25° C | 76% | 1017.1 hPa | 0 mm | - | 122 W/m² | - |
| 1787528728 | 25° C | 76% | 1017.1 hPa | 0 mm | - | 144 W/m² | - |
| 1787528428 | 23.89° C | 78% | 1017.1 hPa | 0 mm | - | 131 W/m² | - |
| 1787528124 | 23.89° C | 77% | 1017.1 hPa | 0 mm | - | 29 W/m² | - |
| 1787527820 | 24.44° C | 76% | 1017.2 hPa | 0 mm | - | 23 W/m² | - |
| 1787527515 | 24.44° C | 76% | 1017.3 hPa | 0 mm | - | 21 W/m² | - |
| 1787527211 | 24.44° C | 75% | 1017.1 hPa | 0 mm | - | 21 W/m² | - |
| 1787526907 | 25° C | 75% | 1017.1 hPa | 0 mm | - | 37 W/m² | - |
| 1787526602 | 25° C | 74% | 1017.1 hPa | 0 mm | - | 58 W/m² | - |
| 1787526299 | 25° C | 72% | 1016.8 hPa | 0 mm | - | 55 W/m² | - |
| 1787525994 | 25° C | 72% | 1017 hPa | 0 mm | - | 75 W/m² | - |
| 1787525690 | 25° C | 73% | 1016.9 hPa | 0 mm | - | 72 W/m² | - |
* Rain latest hour (hover to see other rain measurements)
** Current wind speed in m/s (hover to see current wind gust speed)